RADUGA 20 [-]

Last updated on July 6, 2021, 3:35 p.m. UTC

1 17611U 87028A   21186.68063131 -.00000159  00000-0  00000-0 0  9993
2 17611  15.7415 342.1488 0031054 122.6743 233.3880  0.95962658120964
UTC
Height (km)
Latitude
Longitude
Inclination
Orbital Period
UTC large
Height (km)
Speed (km/s)
/
Latitude / Longitude
Inclination (degrees)
Orbital Period (minutes)
Azimuth
Elevation
Range (km)
Doppler Factor
iOS Compass Heading
iOS Angle